Theta_e
294 290 287 291 291 290 290 288 288 290 294 291 290 291 293 296 295 296 296 300 302 303 304 305 307 307 308 308 308 308 308 307 308 310 312 309 310 313 314 315 319 323 325 326
291 287 294 295 295 293 291 288 287 291 294 292 291 292 295 297 297 297 297 299 302 301 302 305 305 306 307 308 308 308 307 306 309 311 310 312 313 313 313 315 315 318 321 325
289 293 298 296 294 292 289 288 288 289 293 292 291 289 291 295 296 298 298 300 303 303 302 303 304 305 305 306 306 307 305 306 307 308 307 307 306 306 305 307 307 313 318 322
290 294 294 292 292 293 287 293 293 292 288 284 290 282 287 292 294 296 297 296 302 301 302 302 303 303 303 304 305 305 304 303 305 305 303 302 302 302 304 307 308 310 315 318
292 292 290 290 292 295 291 294 292 291 286 284 285 283 286 289 290 293 295 297 300 302 302 302 302 303 303 303 303 302 302 302 302 302 301 301 301 302 304 306 306 307 311 315
293 295 294 293 296 296 296 292 290 288 284 278 285 284 283 286 291 296 296 297 300 301 300 301 302 302 301 300 301 300 301 301 301 301 301 300 299 300 301 302 302 305 307 310
290 291 294 296 291 293 291 286 278 278 279 278 287 283 285 292 298 299 297 297 299 300 300 301 301 300 299 299 300 301 300 299 300 300 300 300 300 299 300 301 302 303 305 305
285 285 293 296 293 290 288 287 280 276 277 283 289 284 289 298 299 298 299 299 299 299 299 300 301 300 298 299 299 299 299 298 299 299 299 299 299 300 301 301 302 303 303 304
285 286 295 296 296 294 288 285 288 284 283 280 284 289 295 297 298 298 298 299 298 299 300 300 300 298 298 298 298 298 298 298 298 298 298 298 299 299 300 301 302 303 303 305
291 285 294 296 296 294 291 294 284 282 279 277 282 284 285 293 295 297 297 298 299 298 299 299 298 298 298 297 297 298 297 297 298 298 298 299 300 300 301 301 301 302 303 304
291 287 288 294 290 289 289 287 288 287 283 279 277 283 292 294 296 297 297 299 298 298 298 298 297 297 297 297 296 297 297 297 297 298 298 298 300 300 301 301 302 302 303 303
292 288 284 289 294 297 293 289 290 283 282 282 281 285 295 297 297 298 298 299 298 299 299 296 296 296 296 296 296 296 297 297 297 297 299 299 300 300 299 300 300 301 301 303
296 287 279 283 288 293 290 290 290 287 285 283 280 285 297 296 296 298 297 298 299 298 296 295 295 296 296 296 297 296 297 297 297 299 298 298 298 298 299 301 301 301 301 301
297 291 287 283 286 289 288 292 290 287 279 286 286 289 292 295 296 298 297 297 298 297 296 296 295 296 296 296 296 296 296 297 297 297 297 297 299 300 300 300 300 300 301 301
290 283 287 290 292 292 291 292 292 287 290 284 289 288 292 294 297 299 298 298 298 297 297 296 296 295 295 295 296 296 295 296 296 296 296 297 299 300 299 300 301 301 301 301
289 283 287 285 292 292 290 293 293 292 292 291 291 290 295 298 301 297 299 298 297 297 297 297 297 297 296 295 295 295 294 295 296 296 296 298 299 300 299 300 300 300 301 301
286 283 284 282 289 288 286 291 292 293 292 292 287 293 297 296 296 297 297 298 298 297 298 298 297 296 295 293 294 292 294 295 295 296 297 297 298 298 299 299 299 299 299 300
285 283 283 280 281 276 289 296 297 294 294 294 293 293 294 296 298 298 299 298 297 297 298 298 296 295 293 292 292 293 293 294 295 295 296 297 298 298 298 299 299 299 300 300
291 285 278 278 277 283 286 292 292 291 291 297 294 295 296 297 297 296 299 299 298 298 298 297 296 294 292 291 292 291 293 295 295 295 296 297 297 297 297 297 298 300 300 300
290 289 282 276 275 271 284 294 298 296 286 297 297 297 295 296 290 293 299 300 299 299 297 296 294 293 291 291 291 290 292 293 295 295 296 297 297 297 298 299 300 302 302 302
281 282 281 279 277 280 291 296 300 287 287 297 298 297 297 294 294 296 300 299 299 298 297 295 293 292 291 291 291 290 292 292 296 296 297 297 298 299 300 301 304 307 306 305
279 278 278 280 279 277 294 296 291 294 298 299 299 300 299 300 299 299 299 298 298 296 296 294 292 291 290 291 291 290 291 294 297 297 296 297 298 299 301 301 304 304 302 304
281 285 281 284 284 291 294 296 296 297 297 297 299 301 301 300 300 299 297 297 296 296 295 294 292 290 290 291 291 290 293 296 296 296 296 297 298 299 299 299 300 300 300 299
287 289 285 286 287 291 294 298 298 303 300 300 302 302 302 301 300 297 296 294 294 294 293 292 290 289 289 291 292 291 293 296 296 295 295 296 296 297 298 298 299 298 297 296
284 288 285 285 288 290 294 296 296 303 305 302 303 302 302 301 299 297 294 294 294 293 293 292 289 288 289 291 291 292 296 296 295 295 295 294 295 295 295 296 296 296 297 295
286 284 283 281 289 290 293 297 298 298 304 305 303 300 302 301 298 295 294 294 293 293 292 290 289 289 290 291 294 293 296 296 295 294 294 293 293 293 293 292 293 294 293 293
Wind_Speed
3 4 6 8 6 4 2 4 5 4 3 1 6 8 11 8 4 8 8 10 10 11 5 6 7 8 7 6 7 5 4 5 4 3 2 1 3 3 3 3 6 6 5 5
6 4 10 5 5 6 6 7 5 5 3 2 5 9 9 8 8 9 10 12 14 7 8 8 8 6 5 6 6 6 3 2 2 1 1 2 2 4 4 4 5 6 6 6
6 8 2 4 4 6 6 6 5 6 4 3 4 9 6 7 6 7 8 14 17 18 15 9 7 6 6 7 7 7 6 3 3 2 3 3 2 2 2 4 4 5 7 7
5 2 1 3 4 8 7 6 4 5 3 4 2 9 5 6 9 9 10 9 17 12 8 7 7 6 6 6 6 6 3 3 3 4 3 3 3 5 4 6 5 6 7 9
9 4 2 1 5 5 9 4 5 3 3 2 3 2 9 4 7 13 11 12 15 15 13 10 9 9 6 7 6 4 4 4 3 4 3 3 5 4 7 7 8 8 6 9
9 1 4 8 6 4 6 5 7 5 3 3 8 8 8 5 4 6 3 6 13 15 10 9 8 7 7 4 4 4 4 2 2 2 4 5 7 9 9 9 9 8 7 6
2 5 4 5 3 3 6 7 3 5 3 7 2 2 11 7 13 10 7 8 10 10 10 9 9 8 7 7 6 4 4 1 4 5 6 7 8 9 11 10 9 8 8 9
4 9 7 4 8 9 8 10 9 7 5 5 3 7 7 4 7 5 10 10 9 9 8 9 9 8 7 7 4 3 2 5 7 7 7 7 8 6 8 9 9 9 10 10
5 8 5 4 5 10 5 4 5 7 2 3 5 8 6 1 6 6 9 8 8 9 9 8 7 7 7 6 4 4 6 7 7 7 7 8 7 9 9 11 11 10 12 10
7 9 9 5 5 2 7 9 4 3 4 5 5 6 7 6 6 5 6 9 9 6 7 7 6 7 5 4 3 5 7 8 7 7 7 8 9 10 10 10 14 15 13 13
3 5 5 4 6 10 2 2 5 6 6 7 2 8 7 10 9 10 9 9 9 7 8 8 7 5 5 4 6 6 6 6 7 7 8 9 11 9 10 12 14 14 15 14
5 5 6 11 4 4 7 12 9 7 6 3 4 11 5 8 10 9 10 6 6 8 10 7 7 6 6 7 5 6 5 6 7 8 10 12 11 11 11 13 15 15 16 16
8 5 6 9 7 3 5 5 5 5 5 9 7 11 3 4 5 8 8 8 6 6 7 6 5 7 5 4 5 5 5 6 8 10 11 12 11 12 14 16 16 16 17 17
2 7 12 12 9 4 5 6 8 8 5 11 11 19 6 8 10 10 8 7 8 8 8 7 6 5 4 5 5 4 6 7 10 10 11 12 13 14 15 17 17 18 18 17
4 6 4 16 20 16 16 8 14 11 20 11 23 17 14 10 12 14 7 7 8 8 8 7 6 6 5 5 3 5 7 7 8 10 11 13 13 15 16 18 20 20 19 19
2 6 5 17 16 12 19 15 11 19 22 13 17 13 6 12 14 5 9 10 10 7 7 8 7 5 4 3 4 6 8 9 7 10 13 13 14 15 17 18 19 20 20 20
7 4 1 10 9 16 15 25 23 16 6 13 13 16 9 8 11 13 10 12 11 8 8 8 6 5 4 3 5 7 8 9 8 11 13 14 15 17 17 18 19 20 21 19
9 7 5 7 8 16 8 9 20 20 17 12 10 10 8 12 10 6 7 10 9 8 8 6 5 5 5 3 4 6 7 9 10 12 13 14 16 17 18 19 20 21 19 19
16 10 6 8 12 16 22 10 9 15 25 18 12 15 9 5 5 2 5 6 9 8 6 6 5 5 4 2 5 6 7 9 10 13 14 16 17 18 20 20 21 20 18 16
13 16 12 4 11 11 11 9 8 4 15 16 15 18 10 9 7 6 9 7 7 6 5 7 7 4 2 3 5 6 8 9 11 14 16 16 17 18 19 20 20 19 16 15
4 4 18 14 13 8 8 7 4 11 16 9 10 7 15 11 6 5 10 6 6 6 8 7 6 5 1 4 5 6 7 9 11 15 15 16 17 17 17 17 16 15 14 13
6 5 7 7 11 20 13 14 12 15 12 4 7 12 11 3 5 8 10 8 8 9 7 6 6 3 2 4 4 7 8 10 11 12 14 15 16 13 12 15 12 14 13 11
7 5 3 3 5 9 10 12 12 14 10 8 14 11 15 14 9 10 8 8 8 8 7 5 6 3 1 5 4 6 10 11 11 12 13 14 15 14 13 13 13 12 12 11
4 5 3 2 5 9 14 13 6 15 13 7 7 12 13 13 10 8 7 7 6 6 6 5 5 2 2 5 5 6 8 10 11 11 12 12 12 14 13 10 9 10 10 11
6 6 5 8 14 12 11 9 14 17 18 7 7 8 12 13 10 8 7 7 6 6 5 5 5 2 2 6 6 6 9 10 10 10 10 10 9 11 11 10 9 9 9 11
8 12 7 9 12 6 6 8 17 20 16 6 10 7 6 10 12 8 7 6 6 6 5 5 4 3 3 5 6 7 9 10 9 9 8 9 8 8 9 10 12 8 9 13
Wind_Direction
12 71 225 230 208 182 223 220 231 259 258 177 237 245 259 262 247 256 227 198 195 200 193 180 186 171 134 99 95 74 43 8 30 12 356 345 296 290 285 264 262 268 265 268
16 257 245 245 193 220 246 227 247 289 271 163 272 253 243 249 246 210 205 202 198 176 183 186 180 158 136 130 114 105 114 62 30 62 268 228 258 271 258 262 280 263 258 250
169 241 34 215 260 228 222 181 203 216 339 333 327 275 230 247 245 252 230 197 196 185 181 178 169 154 132 133 153 160 173 116 59 26 342 334 307 291 309 285 278 263 260 247
218 275 244 353 260 182 223 214 181 146 104 234 37 283 258 229 236 239 239 200 195 180 164 160 159 149 166 176 169 160 128 73 43 6 358 348 294 300 267 288 281 276 262 258
244 258 178 340 241 177 226 127 147 134 128 97 316 296 266 288 258 255 237 209 193 178 159 155 162 163 189 173 177 142 134 90 56 357 2 323 299 273 295 290 286 290 267 253
242 240 199 209 209 137 139 82 46 46 85 322 213 178 282 255 245 310 306 177 160 151 143 149 167 156 178 167 157 164 106 69 26 314 307 294 286 291 294 293 291 285 280 276
286 230 245 172 188 70 83 74 333 336 355 229 176 184 241 285 296 270 232 149 131 128 141 153 166 185 177 178 177 134 89 306 278 280 278 278 274 274 281 284 285 286 290 288
180 295 186 185 179 184 190 160 163 216 204 255 309 239 255 293 316 327 122 124 122 146 164 177 189 184 176 171 149 135 184 249 251 260 265 263 262 268 270 278 277 283 281 283
192 258 274 189 165 141 186 167 192 108 360 52 240 292 309 282 5 72 102 123 155 178 192 185 186 173 168 166 177 201 231 251 261 267 267 261 263 259 265 275 278 278 277 274
242 284 211 219 103 60 163 164 79 1 185 238 272 265 235 217 202 195 170 182 198 195 176 191 175 173 168 168 212 232 245 254 265 270 266 279 279 264 274 278 284 281 278 273
205 172 271 131 200 166 149 172 67 123 149 183 223 257 213 205 195 197 208 212 209 201 191 193 183 166 169 202 224 241 257 269 285 283 283 281 291 288 292 288 287 285 285 280
323 220 215 220 219 240 217 186 154 143 217 234 173 256 227 215 206 190 214 223 229 203 197 177 162 169 202 226 232 251 277 292 284 280 285 292 288 291 291 289 286 287 284 284
354 327 337 331 341 312 207 186 150 115 83 198 173 258 259 221 213 222 225 242 218 187 158 156 176 210 229 248 270 265 288 291 280 287 294 296 299 298 292 291 290 286 284 280
298 227 214 241 240 187 208 207 183 149 134 235 223 245 210 197 210 237 233 229 192 183 172 184 211 246 247 252 250 283 297 276 285 291 297 298 297 296 292 290 287 286 283 280
106 264 260 270 267 244 227 212 214 195 227 197 250 228 225 219 220 228 235 184 181 188 186 199 220 232 240 231 272 295 278 283 284 293 293 291 293 295 295 291 292 291 286 282
234 263 335 293 279 266 251 223 204 211 226 235 254 262 185 227 245 194 205 175 187 185 196 211 225 240 237 214 282 286 282 281 285 287 295 295 298 296 293 292 292 289 285 281
202 223 269 276 338 325 258 233 231 231 200 194 221 238 189 226 223 225 203 183 178 183 197 216 228 234 186 214 269 284 290 292 288 297 302 304 304 299 297 294 290 285 284 284
220 182 168 261 312 258 270 231 240 239 239 221 253 253 205 224 223 179 169 171 175 184 207 215 207 178 187 225 280 289 293 300 299 309 307 308 310 305 300 296 290 287 286 283
213 212 221 222 243 293 306 268 224 222 249 246 231 249 213 129 65 317 181 170 178 190 205 198 180 165 180 280 304 305 311 310 309 313 314 316 311 306 302 297 292 289 286 281
226 225 215 207 223 222 246 251 257 133 254 226 224 240 159 145 166 232 176 171 194 195 174 167 158 159 142 318 310 303 301 313 314 324 318 311 310 303 301 298 296 290 281 275
290 216 226 224 243 278 246 243 209 194 247 164 175 170 162 178 198 180 149 180 190 177 165 149 156 152 213 299 307 306 305 312 319 324 312 311 307 306 303 304 310 319 308 284
263 222 217 220 232 239 356 226 195 231 280 153 153 156 156 150 163 147 166 179 165 150 147 149 142 165 259 310 314 308 308 309 319 317 313 310 312 314 310 318 316 323 330 324
247 249 190 213 261 319 315 290 284 300 247 190 165 171 163 151 166 172 177 162 163 158 149 148 151 169 268 289 314 309 307 318 321 316 315 313 317 316 324 325 326 327 333 333
229 206 227 295 239 247 299 291 272 307 287 162 164 154 151 155 162 166 147 147 141 147 152 147 144 162 300 304 324 298 307 319 320 320 318 321 320 322 328 331 331 329 331 335
212 173 243 258 271 272 242 334 318 316 305 221 153 136 163 150 154 151 147 148 146 149 140 141 145 127 305 310 318 310 321 325 329 323 322 324 317 329 333 333 322 321 323 326
213 236 217 245 262 211 267 312 311 299 277 264 139 103 134 143 148 136 136 143 147 146 134 128 135 130 301 305 333 330 330 330 324 328 334 329 326 332 333 331 325 312 300 321